Location: Ottawa
(45.4167°N, 75.7000°W)
Time: 14:58:33
(UTC-05:00)

N. Korean satellite - Pass Details

Date: 14 October 2017
Orbit: 461 x 513 km, 97.2° (Epoch: 14 December)

Event Time Altitude Azimuth Distance (km) Brightness Sun altitude
Rises 19:25:56 0° 182° (S) 2,544 10.2 -12.6°
Reaches altitude 10° 19:28:05 10° 190° (S) 1,659 9.4 -12.9°
Maximum altitude 19:31:28 41° 262° (W) 711 8.0 -13.5°
Drops below altitude 10° 19:34:49 10° 333° (NNW) 1,646 9.6 -14.1°
Sets 19:36:57 0° 341° (NNW) 2,522 10.5 -14.5°
